Weather in Antipino

Russia / Tyumen Oblast     57°49′21″N   66°33′35″E
temp.,
°C
wind,
m/s
gust,
m/s
humid.,
%
clouds,
%
prec.,
mm/h
press.,
hPa
HPBL,
m
18 september, sat
sat1823:00+3wnw5139159 0.1 1001636
02:00+2w5129428 0.0 1002508
05:00+3w41087100 0.0 1003576
08:00+4w51087100 0.0 1003678
11:00+7wnw586041 0.0 10031219
14:00+8w585495 0.1 10031579
17:00+8w4755100 0.2 10031357
20:00+3wsw388294 0.1 1002175
19 september, sun
sun1923:00+2wsw3118499 0.1 1002313
02:00+1w4109398 0.0 1002444
05:00+2w51094100 0.1 1002864
08:00+2w51297100 0.4 1002635
11:00+2w61297100 2.1 1003646
14:00+2wnw61297100 1.2 1004767
17:00+4wnw61286100 1.5 10061146
20:00+3wnw61387100 0.0 10071002
20 september, mon
mon2023:00+3nw61285100 0.0 10081289
02:00+2nw61195100 0.1 10111057
05:00+2nw51197100 0.5 1013878
08:00+2nw5994100 0.1 10151029
11:00+4nw5987100 0.3 1018844
14:00+5nnw588296 0.3 1021951
17:00+5nnw4885100 0.6 1023837
20:00+3nw3892100 0.1 1024535
21 september, tue
tue2123:00+3nnw389399 0.2 1025534
02:00+2nw379499 0.0 1026552
05:00+1nnw3788100 0.1 1027569
08:00+1nnw2680100 0.0 1028852
11:00+4nnw3464100 0.0 10271067
14:00+7wnw355382 0.0 10261331
17:00+7w3556100 0.0 1024886
20:00+4sw237391 0.0 102443
22 september, wed
wed2223:00+3sw377583 0.0 1022128
02:00+1wsw258146 0.0 102199
05:000nw2491100 0.0 102172
08:00+2nnw368359 0.0 1021205
11:00+5n3581100 0.0 1022536
14:00+7nnw3470100 0.1 10221075
17:00+6nnw377796 0.4 1022772
20:00+3nw2590100 0.0 1023172